Location: Hysolar-Haus
(48.7436°N, 9.0965°E)
Time: 01:49:24
(UTC+00:00)

N. Korean satellite - Visible Passes

Search period start: 22 November 2019 00:00
Search period end: 02 December 2019 00:00
Orbit: 456 x 506 km, 97.2° (Epoch: 21 November)

Date Brightness Start Highest point End Pass type
(mag) Time Alt. Az. Time Alt. Az. Time Alt. Az.
22 Nov 8.4 04:52:01 10° NNE 04:55:27 34° E 04:58:49 10° SSE visible
22 Nov 8.9 17:04:28 10° SSW 17:07:41 28° W 17:10:58 10° NW visible
23 Nov 9.6 04:27:13 10° NE 04:29:53 19° E 04:32:31 10° SE visible
23 Nov 7.1 06:00:00 10° N 06:03:26 37° WNW 06:06:48 10° SW visible
23 Nov 7.5 16:38:34 10° S 16:42:11 55° W 16:45:52 10° NNW visible
24 Nov 6.5 05:34:25 10° N 05:38:07 73° WNW 05:41:44 10° SSW visible
24 Nov 6.6 16:13:06 10° SSE 16:16:46 74° ENE 16:20:31 10° N visible
24 Nov 10.4 17:50:25 10° W 17:50:40 10° W 17:50:56 10° W visible
25 Nov 7.4 05:09:03 10° NNE 05:12:42 55° E 05:16:16 10° S visible
25 Nov 9.6 17:22:19 10° SW 17:25:00 19° W 17:27:42 10° NW visible
26 Nov 8.8 04:43:58 10° NE 04:47:12 28° E 04:50:21 10° SSE visible
26 Nov 8.5 16:56:02 10° SSW 16:59:25 34° W 17:02:52 10° NNW visible
27 Nov 9.8 04:19:21 10° NE 04:21:35 15° E 04:23:46 10° SE visible
27 Nov 6.9 05:51:41 10° N 05:55:14 45° WNW 05:58:41 10° SW visible
27 Nov 7.0 16:30:16 10° S 16:33:57 69° WSW 16:37:41 10° NNW visible
28 Nov 6.5 05:26:11 10° NNE 05:29:52 90° ESE 05:33:28 10° SSW visible
28 Nov 6.7 16:04:54 10° SSE 16:08:33 59° ENE 16:12:15 10° N visible
28 Nov 10.1 17:40:41 10° WSW 17:42:19 12° W 17:43:58 10° WNW visible
29 Nov 7.8 05:00:54 10° NNE 05:04:25 44° E 05:07:51 10° S visible
29 Nov 9.3 17:13:42 10° SSW 17:16:41 23° W 17:19:42 10° NW visible
30 Nov 9.1 04:35:54 10° NE 04:38:51 23° E 04:41:46 10° SSE visible
30 Nov 7.4 06:09:04 10° N 06:12:16 29° WNW 06:15:25 10° SW visible
30 Nov 8.0 16:47:35 10° S 16:51:08 43° W 16:54:43 10° NNW visible
01 Dec 10.0 04:11:38 10° ENE 04:13:12 12° E 04:14:46 10° ESE visible
01 Dec 6.6 05:43:23 10° N 05:46:58 56° WNW 05:50:28 10° SSW visible
01 Dec 6.7 16:21:57 10° SSE 16:25:40 86° WSW 16:29:25 10° NNW visible
